Location: Star Hoppers Observatory
(42.7905°N, 83.6127°W)
Time: 17:17:26
(UTC-05:00)

Amateur Radio Satellites - All Passes

Search period start: 10 December 2016 16:47
Search period end: 11 December 2016 16:47
Location: Star Hoppers Observatory, 42.7905°N, 83.6127°W

Satellite Date Start Highest point End Downlink Frequencies (MHz)
Time Altitude Azimuth
GOMX 1 10 Dec 16:47:47 16:51:57 31° 67° (ENE) 16:56:23 467.674
RS-15 10 Dec 16:48:45 17:00:58 69° 244° (WSW) 17:12:45 29.354- 29.394
M-CUBED/EXP-1 PRIME 10 Dec 16:56:23 16:59:19 17° 304° (WNW) 17:02:10 437.505
STARS 10 Dec 17:22:07 17:26:32 72° 102° (ESE) 17:30:55 437.465
HO-68 10 Dec 17:22:16 17:25:43 14° 49° (NE) 17:29:10 435.675
CUTE-I 10 Dec 17:22:24 17:27:22 40° 68° (ENE) 17:32:21 437.470
Cosmos 2491 10 Dec 17:25:25 17:33:48 48° 74° (ENE) 17:42:06 435.465 / 435.565
NOAA 15 10 Dec 17:28:25 17:33:26 49° 70° (ENE) 17:38:30 137.62
LilacSat-2 10 Dec 17:29:40 17:33:15 39° 72° (ENE) 17:36:50 437.200
KKS-1 10 Dec 17:30:34 17:34:50 44° 290° (WNW) 17:39:04 437.445
BRITE-PL 10 Dec 17:38:13 17:42:17 36° 264° (W) 17:46:41 437.365/2234.400
MOZHAYETS 4 10 Dec 17:38:31 17:41:29 17° 296° (WNW) 17:44:27
HORYU 2 10 Dec 17:43:16 17:47:26 38° 262° (W) 17:51:38 437.375
Cosmos 2504 10 Dec 17:49:16 17:51:08 11° 70° (ENE) 17:53:00 435.465 / 435.565
Cubesat XI-IV 10 Dec 17:49:37 17:54:57 69° 73° (ENE) 18:00:18 437.490
YUBILEINY 10 Dec 17:53:00 17:59:59 28° 81° (E) 18:07:00 435.215
CUBESAT XI-V 10 Dec 17:53:33 17:58:14 72° 286° (WNW) 18:02:53 437.345
ISS 10 Dec 18:07:08 18:09:27 17° 358° (N) 18:11:46 145.825
DOVE 4 10 Dec 18:09:03 18:13:58 81° 76° (ENE) 18:19:11 437.250
NOAA 18 10 Dec 18:14:11 18:19:43 75° 73° (ENE) 18:25:17 137.9125
SO-50 10 Dec 18:15:09 18:18:08 17° 110° (ESE) 18:21:06 436.795
GOMX 1 10 Dec 18:25:47 18:29:57 31° 266° (W) 18:34:26 467.674
PCSat 10 Dec 18:26:41 18:30:35 19° 42° (NE) 18:34:27 145.827
AIST 1 10 Dec 18:35:48 18:38:12 15° 85° (E) 18:40:39
CUBEBUG 2 10 Dec 18:37:02 18:38:38 12° 61° (ENE) 18:40:16 437.445
STRAND 1 10 Dec 18:43:52 18:46:33 14° 90° (E) 18:49:14 437.568
CINEMA 3 10 Dec 18:50:05 18:54:57 56° 73° (ENE) 18:59:53 145.822/145.860
STARS 10 Dec 19:00:24 19:02:18 13° 299° (WNW) 19:04:11 437.465
CUTE-I 10 Dec 19:02:59 19:07:30 28° 265° (W) 19:12:04 437.470
RS-15 10 Dec 19:04:42 19:10:56 16° 266° (W) 19:17:05 29.354- 29.394
HO-68 10 Dec 19:05:03 19:12:07 67° 69° (ENE) 19:19:14 435.675
LilacSat-2 10 Dec 19:05:26 19:07:43 15° 268° (W) 19:09:59 437.200
AAUSAT CUBESAT 2 10 Dec 19:06:00 19:08:36 16° 65° (ENE) 19:11:12 437.432
CUTE 1.7 + AOD 2 10 Dec 19:06:02 19:10:02 45° 72° (ENE) 19:14:03 437.475
UWE-3 10 Dec 19:07:23 19:10:00 15° 63° (ENE) 19:12:35 435.000/436.395/437.385
NOAA 15 10 Dec 19:09:32 19:13:28 21° 267° (W) 19:17:26 137.62
Cosmos 2491 10 Dec 19:22:37 19:30:26 39° 274° (W) 19:38:15 435.465 / 435.565
CANX-2 10 Dec 19:24:56 19:29:09 87° 72° (ENE) 19:33:22 2200.000
Cubesat XI-IV 10 Dec 19:32:18 19:35:30 16° 270° (W) 19:38:43 437.490
Cosmos 2504 10 Dec 19:34:12 19:42:29 60° 91° (E) 19:51:10 435.465 / 435.565
ZACube-1 10 Dec 19:36:10 19:39:10 18° 65° (ENE) 19:42:10 437.345
SEEDS 10 Dec 19:39:25 19:43:34 74° 75° (ENE) 19:47:44 437.485
COMPASS 1 10 Dec 19:39:59 19:43:56 48° 73° (ENE) 19:47:56 437.405
FUNcube-1 10 Dec 19:40:45 19:43:48 18° 65° (ENE) 19:46:49 145.935
ISS 10 Dec 19:43:55 19:46:45 25° 18° (NNE) 19:49:35 145.825
YUBILEINY 10 Dec 19:47:26 19:56:05 65° 282° (WNW) 20:04:49 435.215
DOVE 4 10 Dec 19:50:23 19:52:21 12° 274° (W) 19:54:20 437.250
SO-50 10 Dec 19:53:24 19:58:08 63° 306° (NW) 20:02:49 436.795
NOAA 18 10 Dec 19:57:50 20:00:56 15° 270° (W) 20:04:05 137.9125
DANDE 10 Dec 19:58:33 19:59:08 10° 74° (ENE) 19:59:43 436.750
CUSAT 1 10 Dec 20:00:16 20:04:19 65° 80° (E) 20:09:41 437.405
Oscar 11 10 Dec 20:03:48 20:07:29 28° 69° (ENE) 20:11:11 145.826/435.025
PCSat 10 Dec 20:09:11 20:14:38 81° 241° (WSW) 20:20:03 145.827
CUBEBUG 2 10 Dec 20:09:49 20:14:35 87° 257° (WSW) 20:19:17 437.445
AIST 1 10 Dec 20:11:10 20:15:21 48° 282° (WNW) 20:19:36
STRAND 1 10 Dec 20:21:09 20:26:14 70° 287° (WNW) 20:31:17 437.568
CINEMA 3 10 Dec 20:29:04 20:32:25 18° 270° (W) 20:35:47 145.822/145.860
AAUSAT CUBESAT 2 10 Dec 20:39:48 20:43:43 44° 261° (W) 20:47:40 437.432
UWE-3 10 Dec 20:41:22 20:45:58 62° 260° (W) 20:50:30 435.000/436.395/437.385
CUTE 1.7 + AOD 2 10 Dec 20:43:33 20:46:06 16° 269° (W) 20:48:40 437.475
DELFI C3 10 Dec 20:52:36 20:56:05 32° 71° (ENE) 20:59:36 145.870
HO-68 10 Dec 20:54:46 21:00:21 24° 268° (W) 21:05:59 435.675
ZACube-1 10 Dec 21:10:43 21:15:06 48° 261° (W) 21:19:25 437.345
FUNcube-1 10 Dec 21:15:21 21:19:41 47° 261° (W) 21:23:58 145.935
COMPASS 1 10 Dec 21:17:34 21:19:47 14° 269° (W) 21:21:59 437.405
ISS 10 Dec 21:20:12 21:23:29 68° 217° (SW) 21:26:46 145.825
Cosmos 2504 10 Dec 21:28:55 21:36:24 33° 292° (WNW) 21:44:11 435.465 / 435.565
PRISM 10 Dec 21:36:23 21:40:28 52° 100° (E) 21:44:32 437.425
SO-50 10 Dec 21:37:22 21:39:31 13° 327° (NNW) 21:41:39 436.795
DANDE 10 Dec 21:38:50 21:41:45 35° 262° (W) 21:45:20 436.750
Oscar 11 10 Dec 21:39:56 21:43:34 26° 265° (W) 21:47:13 145.826/435.025
CUSAT 1 10 Dec 21:44:22 21:46:06 12° 268° (W) 21:47:57 437.405
YUBILEINY 10 Dec 21:50:58 21:54:54 13° 305° (NW) 21:58:53 435.215
HUMSAT D 10 Dec 21:51:43 21:55:54 83° 78° (ENE) 22:00:03 437.325/437.525
PCSat 10 Dec 21:55:59 21:57:07 11° 259° (W) 21:58:14 145.827
UNISAT 6 10 Dec 22:10:22 22:14:09 28° 95° (E) 22:17:50 437.425
PHONESAT 2.4 10 Dec 22:23:59 22:25:45 16° 156° (SSE) 22:27:32 2401.200-2431.200
DELFI C3 10 Dec 22:28:07 22:30:58 19° 267° (W) 22:33:50 145.870
JAS-2 10 Dec 22:34:14 22:35:58 11° 89° (E) 22:37:42 435.910
TIGRISAT 10 Dec 22:38:19 22:42:36 53° 100° (E) 22:46:45 435.000
GONETS M04 10 Dec 22:38:35 22:39:28 10° 71° (ENE) 22:40:20
AISAT 10 Dec 22:40:48 22:43:57 19° 64° (ENE) 22:47:07 437.250
ANTELSAT 10 Dec 22:41:11 22:45:30 61° 101° (E) 22:49:44 437.575/2403.000
CUBEBUG 1 10 Dec 22:51:35 22:55:30 33° 69° (ENE) 22:59:26 437.445
ESTCUBE 1 10 Dec 22:55:38 23:00:01 59° 73° (ENE) 23:04:27 437.505/2401.250
UKube-1 10 Dec 23:09:49 23:12:15 15° 62° (ENE) 23:14:40 .
SPROUT 10 Dec 23:09:56 23:13:20 23° 67° (ENE) 23:16:45 437.525
DX 1 10 Dec 23:12:27 23:15:42 21° 65° (ENE) 23:18:58 434.975-435.025
PRISM 10 Dec 23:12:57 23:15:20 15° 297° (WNW) 23:17:43 437.425
NANOSAT C BR1 10 Dec 23:15:18 23:17:34 14° 91° (E) 23:19:50 145.865
VELOX 1 10 Dec 23:16:08 23:20:15 40° 70° (ENE) 23:24:25 145.980
QB50P2 10 Dec 23:25:42 23:28:58 21° 94° (E) 23:32:13 145.880/145.840
POLYITAN 1 10 Dec 23:26:09 23:29:19 20° 93° (E) 23:32:27 437.675
50 SAT 10 Dec 23:29:04 23:32:22 40° 73° (ENE) 23:35:41 437.505
DUCHIFAT 1 10 Dec 23:33:54 23:37:06 21° 94° (E) 23:40:16 145.980
QB50P1 10 Dec 23:37:04 23:40:40 26° 95° (E) 23:44:13 145.935-145.965
UNISAT 6 10 Dec 23:47:07 23:50:47 27° 293° (WNW) 23:54:22 437.425
PHONESAT 2.4 10 Dec 23:58:00 00:00:33 43° 172° (S) 00:03:06 2401.200-2431.200
POPSAT HIP 1 10 Dec 23:58:48 00:02:54 45° 99° (E) 00:06:55 437.405
AO-85 10 Dec 23:58:56 00:01:29 14° 110° (ESE) 00:03:59 145.980
BUGSAT 1 11 Dec 00:08:50 00:11:50 19° 93° (E) 00:14:46 437.445
Cosmos 2499 11 Dec 00:10:21 00:18:44 56° 90° (E) 00:27:21 435.465 / 435.565
TISAT 1 11 Dec 00:12:55 00:15:54 19° 65° (ENE) 00:18:54 437.305
AISAT 11 Dec 00:15:51 00:20:05 44° 261° (W) 00:24:22 437.250
TIGRISAT 11 Dec 00:16:17 00:18:50 15° 297° (WNW) 00:21:20 435.000
JAS-2 11 Dec 00:16:25 00:21:40 84° 285° (WNW) 00:27:18 435.910
ANTELSAT 11 Dec 00:19:30 00:21:42 14° 298° (WNW) 00:23:52 437.575/2403.000
GONETS M04 11 Dec 00:25:48 00:34:19 61° 91° (E) 00:42:48
CUBEBUG 1 11 Dec 00:28:16 00:31:48 24° 266° (W) 00:35:23 437.445
O/OREOS (USA 219) 11 Dec 00:34:14 00:38:19 33° 60° (ENE) 00:42:23 437.305
ESTCUBE 1 11 Dec 00:34:58 00:37:13 14° 270° (W) 00:39:27 437.505/2401.250
M-CUBED/EXP-1 PRIME 11 Dec 00:36:16 00:37:35 11° 52° (NE) 00:38:54 437.505
UKube-1 11 Dec 00:43:34 00:47:49 57° 259° (W) 00:52:06 .
SPROUT 11 Dec 00:45:11 00:49:05 33° 263° (W) 00:53:01 437.525
DX 1 11 Dec 00:47:34 00:51:37 38° 261° (W) 00:55:45 434.975-435.025
NANOSAT C BR1 11 Dec 00:49:30 00:53:36 50° 287° (WNW) 00:57:40 145.865
VELOX 1 11 Dec 00:53:40 00:56:52 20° 267° (W) 01:00:07 145.980
QB50P2 11 Dec 01:01:01 01:04:50 33° 290° (WNW) 01:08:37 145.880/145.840
POLYITAN 1 11 Dec 01:01:21 01:05:13 35° 290° (WNW) 01:09:02 437.675
50 SAT 11 Dec 01:04:26 01:05:52 12° 268° (W) 01:07:18 437.505
Oscar 19 11 Dec 01:04:55 01:08:46 21° 93° (E) 01:12:37 437.125/150
SWISSCUBE 11 Dec 01:06:21 01:09:34 18° 63° (ENE) 01:12:47 437.505
DUCHIFAT 1 11 Dec 01:09:03 01:12:51 34° 290° (WNW) 01:16:38 145.980
BEESAT 11 Dec 01:09:52 01:13:01 18° 62° (ENE) 01:16:11 436.000
QB50P1 11 Dec 01:12:47 01:16:22 27° 292° (WNW) 01:19:56 145.935-145.965
PHONESAT 2.4 11 Dec 01:32:59 01:35:31 43° 189° (S) 01:38:03 2401.200-2431.200
POPSAT HIP 1 11 Dec 01:35:33 01:38:18 17° 296° (WNW) 01:41:03 437.405
AO-85 11 Dec 01:36:35 01:41:29 74° 305° (NW) 01:46:01 145.980
ITUPSAT 1 11 Dec 01:39:56 01:44:11 33° 68° (ENE) 01:48:25 437.325
BUGSAT 1 11 Dec 01:43:29 01:47:19 36° 290° (WNW) 01:51:05 437.445
Gurwin Techsat 1B 11 Dec 01:44:29 01:48:50 25° 94° (E) 01:53:09 435.225
TISAT 1 11 Dec 01:47:13 01:51:14 41° 261° (W) 01:55:17 437.305
AUBIESAT-1 11 Dec 01:50:06 01:54:13 46° 66° (ENE) 01:58:34 437.475
JAS-2 11 Dec 02:04:23 02:06:03 11° 303° (WNW) 02:07:44 435.910
Cosmos 2499 11 Dec 02:04:24 02:12:13 36° 291° (WNW) 02:20:14 435.465 / 435.565
M-CUBED/EXP-1 PRIME 11 Dec 02:06:57 02:11:12 85° 71° (ENE) 02:15:47 437.505
O/OREOS (USA 219) 11 Dec 02:13:57 02:17:33 24° 257° (WSW) 02:21:09 437.305
GONETS M04 11 Dec 02:24:12 02:31:39 31° 292° (WNW) 02:39:09
AO-7 11 Dec 02:34:30 02:38:44 15° 88° (E) 02:42:57 29.400- 29.500
SWISSCUBE 11 Dec 02:42:17 02:46:56 54° 259° (W) 02:51:37 437.505
Oscar 19 11 Dec 02:43:20 02:48:22 51° 289° (WNW) 02:53:23 437.125/150
SO-50 11 Dec 02:44:20 02:47:51 21° 41° (NE) 02:51:19 436.795
BEESAT 11 Dec 02:45:41 02:50:21 55° 259° (W) 02:55:03 436.000
KKS-1 11 Dec 02:53:51 02:57:04 20° 64° (ENE) 03:00:18 437.445
MOZHAYETS 4 11 Dec 03:02:37 03:07:05 54° 73° (ENE) 03:11:32
PHONESAT 2.4 11 Dec 03:08:35 03:10:18 16° 204° (SSW) 03:12:02 2401.200-2431.200
ITUPSAT 1 11 Dec 03:17:55 03:22:00 28° 264° (W) 03:26:06 437.325
AO-85 11 Dec 03:20:19 03:22:36 13° 323° (NW) 03:24:48 145.980
CUBESAT XI-V 11 Dec 03:22:46 03:25:07 14° 61° (ENE) 03:27:28 437.345
ITAMSAT 1 11 Dec 03:23:47 03:28:46 46° 99° (E) 03:33:43 435.822/435.867
Gurwin Techsat 1B 11 Dec 03:23:55 03:28:56 43° 291° (WNW) 03:33:55 435.225
AUBIESAT-1 11 Dec 03:25:51 03:28:51 18° 264° (W) 03:31:59 437.475
BEESAT 2 11 Dec 03:28:08 03:28:59 11° 108° (ESE) 03:29:49 435.950
YUBILEINY 11 Dec 04:02:05 04:06:31 14° 56° (NE) 04:10:56 435.215
STARS 11 Dec 04:19:03 04:23:27 69° 74° (ENE) 04:27:53 437.465
BEESAT 3 11 Dec 04:20:54 04:24:48 87° 305° (NW) 04:28:46 437.485
SO-50 11 Dec 04:24:14 04:28:39 55° 241° (WSW) 04:33:00 436.795
AO-7 11 Dec 04:24:23 04:32:49 76° 106° (ESE) 04:41:11 29.400- 29.500
KKS-1 11 Dec 04:29:03 04:33:19 43° 261° (W) 04:37:38 437.445
MOZHAYETS 4 11 Dec 04:41:49 04:44:34 16° 269° (W) 04:47:17
GOMX 1 11 Dec 04:51:42 04:52:13 10° 85° (E) 04:52:44 467.674
CUBESAT XI-V 11 Dec 04:57:22 05:01:55 68° 259° (WSW) 05:06:32 437.345
BEESAT 2 11 Dec 05:02:14 05:06:09 71° 304° (NW) 05:10:09 435.950
ITAMSAT 1 11 Dec 05:03:52 05:07:56 24° 297° (WNW) 05:12:00 435.822/435.867
RS-15 11 Dec 05:05:24 05:12:33 19° 96° (E) 05:19:50 29.354- 29.394
Cosmos 2504 11 Dec 05:26:58 05:33:45 24° 63° (ENE) 05:40:11 435.465 / 435.565
HORYU 2 11 Dec 05:33:06 05:37:11 35° 98° (E) 05:41:14 437.375
CUTE-I 11 Dec 05:40:01 05:42:48 14° 89° (E) 05:45:36 437.470
BRITE-PL 11 Dec 05:40:35 05:46:08 68° 101° (E) 05:51:48 437.365/2234.400
NOAA 15 11 Dec 05:43:42 05:47:08 17° 91° (E) 05:50:32 137.62
YUBILEINY 11 Dec 05:56:25 06:05:15 68° 79° (E) 06:14:02 435.215
STARS 11 Dec 05:58:46 06:00:16 11° 270° (W) 06:01:45 437.465
STRAND 1 11 Dec 06:00:00 06:04:02 24° 64° (ENE) 06:08:03 437.568
BEESAT 3 11 Dec 06:01:20 06:03:03 12° 323° (NW) 06:04:47 437.485
Cubesat XI-IV 11 Dec 06:06:38 06:11:00 25° 94° (E) 06:15:21 437.490
DOVE 4 11 Dec 06:07:57 06:12:07 24° 92° (E) 06:16:09 437.250
AIST 1 11 Dec 06:17:07 06:21:20 42° 77° (ENE) 06:25:31
AO-7 11 Dec 06:18:07 06:24:49 28° 306° (NW) 06:31:31 29.400- 29.500
GOMX 1 11 Dec 06:25:33 06:31:06 78° 102° (ESE) 06:36:31 467.674
Cosmos 2491 11 Dec 06:27:21 06:35:44 53° 90° (E) 06:44:07 435.465 / 435.565
NOAA 18 11 Dec 06:35:55 06:40:42 29° 96° (E) 06:45:26 137.9125
LilacSat-2 11 Dec 06:36:02 06:39:44 52° 99° (E) 06:43:24 437.200
AIST 2 11 Dec 06:42:17 06:45:57 32° 115° (ESE) 06:49:40 435.215
BEESAT 2 11 Dec 06:43:36 06:44:43 11° 325° (NW) 06:45:51 435.950
CINEMA 3 11 Dec 06:46:24 06:48:20 12° 87° (E) 06:50:14 145.822/145.860
HORYU 2 11 Dec 07:10:04 07:13:32 23° 295° (WNW) 07:16:58 437.375
CANX-2 11 Dec 07:10:29 07:12:46 14° 91° (E) 07:15:03 2200.000
RS-15 11 Dec 07:11:03 07:22:46 76° 118° (ESE) 07:35:02 29.354- 29.394
CUTE-I 11 Dec 07:18:05 07:23:25 74° 287° (WNW) 07:28:42 437.470
Cosmos 2504 11 Dec 07:19:26 07:28:11 78° 265° (W) 07:36:18 435.465 / 435.565
BRITE-PL 11 Dec 07:20:14 07:24:03 19° 297° (WNW) 07:27:58 437.365/2234.400
NOAA 15 11 Dec 07:22:05 07:27:19 63° 288° (WNW) 07:32:32 137.62
SEEDS 11 Dec 07:24:32 07:25:56 11° 89° (E) 07:27:20 437.485
STRAND 1 11 Dec 07:38:01 07:42:55 45° 261° (W) 07:47:50 437.568
DOVE 4 11 Dec 07:44:59 07:49:59 44° 290° (WNW) 07:54:47 437.250
Cubesat XI-IV 11 Dec 07:46:12 07:51:14 43° 291° (WNW) 07:56:13 437.490
YUBILEINY 11 Dec 07:54:19 08:01:17 27° 279° (W) 08:08:15 435.215
AIST 1 11 Dec 07:55:44 07:58:34 17° 274° (W) 08:01:22
CUBEBUG 2 11 Dec 08:01:11 08:04:07 18° 91° (E) 08:06:59 437.445
GOMX 1 11 Dec 08:05:08 08:08:28 17° 300° (WNW) 08:11:47 467.674
LilacSat-2 11 Dec 08:12:04 08:13:34 12° 296° (WNW) 08:15:03 437.200
NOAA 18 11 Dec 08:16:18 08:21:25 40° 293° (WNW) 08:26:30 137.9125
HO-68 11 Dec 08:19:16 08:26:27 65° 103° (ESE) 08:33:35 435.675
AIST 2 11 Dec 08:20:52 08:24:26 27° 314° (NW) 08:28:04 435.215
AAUSAT CUBESAT 2 11 Dec 08:21:14 08:24:42 25° 95° (E) 08:28:10 437.432
CINEMA 3 11 Dec 08:21:19 08:26:01 68° 286° (WNW) 08:30:29 145.822/145.860
Cosmos 2491 11 Dec 08:25:02 08:32:52 36° 290° (WNW) 08:40:45 435.465 / 435.565
CUTE 1.7 + AOD 2 11 Dec 08:25:25 08:29:39 84° 102° (ESE) 08:33:54 437.475
PRISM 11 Dec 08:26:19 08:30:08 40° 71° (ENE) 08:34:00 437.425
AO-85 11 Dec 08:28:21 08:30:46 15° 39° (NE) 08:33:07 145.980
UWE-3 11 Dec 08:30:55 08:34:20 23° 94° (E) 08:37:41 435.000/436.395/437.385
CANX-2 11 Dec 08:44:48 08:48:55 51° 287° (WNW) 08:53:01 2200.000
COMPASS 1 11 Dec 08:56:58 09:01:09 85° 99° (E) 09:05:21 437.405
SEEDS 11 Dec 08:57:52 09:02:02 62° 285° (WNW) 09:06:10 437.485
ZACube-1 11 Dec 08:58:32 09:02:09 28° 95° (E) 09:05:45 437.345
CUTE-I 11 Dec 09:01:09 09:02:31 11° 305° (NW) 09:03:54 437.470
FUNcube-1 11 Dec 09:02:46 09:06:25 29° 95° (E) 09:10:01 145.935
CUSAT 1 11 Dec 09:05:47 09:08:31 52° 98° (E) 09:11:04 437.405
DANDE 11 Dec 09:08:17 09:10:08 13° 95° (E) 09:11:49 436.750
UNISAT 6 11 Dec 09:09:34 09:13:36 30° 68° (ENE) 09:17:35 437.425
PCSat 11 Dec 09:13:06 09:14:10 11° 101° (E) 09:15:13 145.827
Cosmos 2504 11 Dec 09:15:31 09:19:56 15° 286° (WNW) 09:24:14 435.465 / 435.565
RS-15 11 Dec 09:25:18 09:36:26 42° 325° (NW) 09:47:59 29.354- 29.394
Oscar 11 11 Dec 09:25:23 09:29:36 51° 100° (E) 09:33:47 145.826/435.025
HUMSAT D 11 Dec 09:36:10 09:37:43 12° 90° (E) 09:39:15 437.325/437.525
CUBEBUG 2 11 Dec 09:36:52 09:40:57 40° 289° (WNW) 09:44:53 437.445
TIGRISAT 11 Dec 09:37:05 09:41:37 52° 73° (ENE) 09:46:05 435.000
ANTELSAT 11 Dec 09:40:04 09:44:40 60° 73° (ENE) 09:49:11 437.575/2403.000
AAUSAT CUBESAT 2 11 Dec 09:56:36 10:00:07 27° 291° (WNW) 10:03:39 437.432
Cosmos 2499 11 Dec 10:02:11 10:08:15 21° 61° (ENE) 10:14:01 435.465 / 435.565
PRISM 11 Dec 10:02:57 10:05:36 17° 267° (W) 10:08:17 437.425
DELFI C3 11 Dec 10:03:10 10:07:02 47° 99° (E) 10:10:54 145.870
UWE-3 11 Dec 10:07:06 10:10:49 30° 291° (WNW) 10:14:27 435.000/436.395/437.385
AO-85 11 Dec 10:07:42 10:11:38 67° 240° (WSW) 10:15:28 145.980
HO-68 11 Dec 10:07:49 10:13:38 27° 302° (WNW) 10:19:26 435.675
NANOSAT C BR1 11 Dec 10:08:48 10:10:46 13° 62° (ENE) 10:12:45 145.865
QB50P2 11 Dec 10:19:18 10:22:20 19° 65° (ENE) 10:25:23 145.880/145.840
POLYITAN 1 11 Dec 10:19:46 10:22:43 18° 65° (ENE) 10:25:41 437.675
DUCHIFAT 1 11 Dec 10:26:46 10:29:42 18° 65° (ENE) 10:32:38 145.980
JAS-2 11 Dec 10:29:26 10:35:12 45° 70° (ENE) 10:40:25 435.910
QB50P1 11 Dec 10:30:19 10:33:42 23° 67° (ENE) 10:37:05 145.935-145.965
ZACube-1 11 Dec 10:34:56 10:38:21 25° 292° (WNW) 10:41:44 437.345
GONETS M04 11 Dec 10:35:15 10:42:48 31° 68° (ENE) 10:50:19
FUNcube-1 11 Dec 10:39:10 10:42:33 24° 293° (WNW) 10:45:52 145.935
UNISAT 6 11 Dec 10:46:11 10:50:15 29° 264° (W) 10:54:16 437.425
ESTCUBE 1 11 Dec 10:49:20 10:50:59 12° 89° (E) 10:52:38 437.505/2401.250
DANDE 11 Dec 10:49:24 10:52:42 27° 282° (WNW) 10:55:26 436.750
PCSat 11 Dec 10:51:13 10:56:38 81° 118° (ESE) 11:02:05 145.827
POPSAT HIP 1 11 Dec 10:51:47 10:55:43 37° 71° (ENE) 10:59:41 437.405
BUGSAT 1 11 Dec 10:59:38 11:02:18 16° 64° (ENE) 11:04:59 437.445
BEESAT 3 11 Dec 11:01:43 11:02:41 11° 35° (NE) 11:03:38 437.485
Oscar 11 11 Dec 11:02:42 11:05:19 16° 296° (WNW) 11:07:56 145.826/435.025
HUMSAT D 11 Dec 11:09:40 11:13:41 56° 286° (WNW) 11:17:40 437.325/437.525
TIGRISAT 11 Dec 11:15:37 11:18:34 17° 268° (W) 11:21:30 435.000
ANTELSAT 11 Dec 11:19:08 11:21:41 15° 269° (W) 11:24:15 437.575/2403.000
DELFI C3 11 Dec 11:39:12 11:41:28 15° 295° (WNW) 11:43:43 145.870
NANOSAT C BR1 11 Dec 11:41:44 11:45:57 64° 258° (WSW) 11:50:13 145.865
BEESAT 2 11 Dec 11:43:00 11:44:52 13° 38° (NE) 11:46:43 435.950
RS-15 11 Dec 11:43:52 11:53:34 26° 358° (N) 12:03:19 29.354- 29.394
QB50P2 11 Dec 11:53:49 11:57:51 40° 262° (W) 12:01:55 145.880/145.840
Cosmos 2499 11 Dec 11:54:06 12:02:38 85° 264° (W) 12:10:27 435.465 / 435.565
POLYITAN 1 11 Dec 11:54:06 11:58:11 43° 261° (W) 12:02:18 437.675
DUCHIFAT 1 11 Dec 12:01:01 12:05:03 42° 261° (W) 12:09:07 145.980
AISAT 11 Dec 12:05:04 12:09:05 32° 97° (E) 12:13:05 437.250
QB50P1 11 Dec 12:05:25 12:09:17 33° 263° (W) 12:13:11 145.935-145.965
CUBEBUG 1 11 Dec 12:14:50 12:19:14 58° 101° (E) 12:23:35 437.445
JAS-2 11 Dec 12:15:19 12:20:25 27° 264° (W) 12:25:07 435.910
Oscar 19 11 Dec 12:22:19 12:26:51 33° 67° (ENE) 12:31:26 437.125/150
ESTCUBE 1 11 Dec 12:23:44 12:28:16 70° 285° (WNW) 12:32:45 437.505/2401.250
50 SAT 11 Dec 12:27:13 12:30:38 41° 99° (E) 12:34:02 437.505
POPSAT HIP 1 11 Dec 12:28:28 12:31:37 20° 267° (W) 12:34:46 437.405
SPROUT 11 Dec 12:29:47 12:33:47 37° 98° (E) 12:37:44 437.525
UKube-1 11 Dec 12:30:19 12:33:40 22° 94° (E) 12:37:01 .
GONETS M04 11 Dec 12:31:36 12:40:07 60° 269° (W) 12:48:40
BUGSAT 1 11 Dec 12:33:10 12:37:16 48° 260° (W) 12:41:25 437.445
DX 1 11 Dec 12:34:43 12:38:41 32° 97° (E) 12:42:37 434.975-435.025
PCSat 11 Dec 12:36:49 12:40:41 19° 318° (NW) 12:44:35 145.827
BEESAT 3 11 Dec 12:37:04 12:41:04 68° 55° (NE) 12:45:01 437.485
VELOX 1 11 Dec 12:41:14 12:45:43 74° 103° (ESE) 12:50:10 145.980
Gurwin Techsat 1B 11 Dec 13:06:06 13:11:06 43° 69° (ENE) 13:16:07 435.225
ITAMSAT 1 11 Dec 13:07:34 13:09:00 11° 56° (NE) 13:10:27 435.822/435.867
BEESAT 2 11 Dec 13:19:14 13:23:17 86° 52° (NE) 13:27:19 435.950
TISAT 1 11 Dec 13:30:19 13:33:56 27° 96° (E) 13:37:30 437.305
AO-7 11 Dec 13:33:52 13:40:22 27° 53° (NE) 13:46:54 29.400- 29.500
AISAT 11 Dec 13:41:43 13:45:25 26° 293° (WNW) 13:49:06 437.250
Cosmos 2499 11 Dec 13:49:33 13:54:17 17° 285° (WNW) 13:58:50 435.465 / 435.565
CUBEBUG 1 11 Dec 13:52:30 13:55:02 15° 298° (WNW) 13:57:33 437.445
RS-15 11 Dec 13:59:36 14:10:56 39° 33° (NNE) 14:22:03 29.354- 29.394
ISS 11 Dec 14:01:09 14:03:48 23° 135° (SE) 14:06:28 145.825
Oscar 19 11 Dec 14:01:35 14:06:08 32° 264° (W) 14:10:43 437.125/150
50 SAT 11 Dec 14:01:48 14:03:33 13° 295° (WNW) 14:05:19 437.505
UKube-1 11 Dec 14:05:50 14:09:47 35° 291° (WNW) 14:13:44 .
SPROUT 11 Dec 14:06:16 14:09:27 21° 294° (WNW) 14:12:38 437.525
DX 1 11 Dec 14:11:10 14:14:43 25° 294° (WNW) 14:18:16 434.975-435.025
BEESAT 3 11 Dec 14:16:54 14:18:07 11° 252° (WSW) 14:19:21 437.485
VELOX 1 11 Dec 14:19:40 14:21:33 13° 300° (WNW) 14:23:27 145.980
GONETS M04 11 Dec 14:34:24 14:34:57 10° 289° (WNW) 14:35:30
SWISSCUBE 11 Dec 14:41:37 14:45:58 35° 97° (E) 14:50:18 437.505
ITAMSAT 1 11 Dec 14:42:23 14:47:35 77° 74° (ENE) 14:52:49 435.822/435.867
BEESAT 11 Dec 14:45:01 14:49:20 34° 97° (E) 14:53:38 436.000
Gurwin Techsat 1B 11 Dec 14:46:52 14:51:12 25° 266° (W) 14:55:34 435.225
O/OREOS (USA 219) 11 Dec 14:47:20 14:51:23 33° 105° (ESE) 14:55:28 437.305
MOZHAYETS 4 11 Dec 14:58:54 15:00:30 12° 89° (E) 15:02:05
AUBIESAT-1 11 Dec 15:02:22 15:06:20 30° 100° (E) 15:10:07 437.475
AIST 2 11 Dec 15:02:29 15:06:16 30° 47° (NE) 15:10:02 435.215
TISAT 1 11 Dec 15:05:57 15:09:29 27° 292° (WNW) 15:13:00 437.305
ITUPSAT 1 11 Dec 15:16:33 15:21:19 69° 102° (ESE) 15:26:03 437.325
M-CUBED/EXP-1 PRIME 11 Dec 15:19:35 15:24:09 57° 105° (ESE) 15:28:27 437.505
AO-7 11 Dec 15:24:00 15:32:18 79° 253° (WSW) 15:40:43 29.400- 29.500
ISS 11 Dec 15:36:55 15:40:07 48° 332° (NNW) 15:43:20 145.825
GOMX 1 11 Dec 16:00:05 16:01:43 12° 57° (ENE) 16:03:24 467.674
STARS 11 Dec 16:09:50 16:11:21 12° 90° (E) 16:12:53 437.465
RS-15 11 Dec 16:12:34 16:25:01 85° 239° (WSW) 16:36:59 29.354- 29.394
KKS-1 11 Dec 16:19:07 16:23:08 32° 97° (E) 16:27:08 437.445
SWISSCUBE 11 Dec 16:19:41 16:23:36 26° 294° (WNW) 16:27:32 437.505
BEESAT 11 Dec 16:23:00 16:26:59 27° 294° (WNW) 16:30:57 436.000
ITAMSAT 1 11 Dec 16:25:08 16:27:37 13° 271° (W) 16:30:07 435.822/435.867
O/OREOS (USA 219) 11 Dec 16:26:58 16:30:49 26° 302° (WNW) 16:34:40 437.305
HORYU 2 11 Dec 16:31:37 16:35:44 37° 69° (ENE) 16:39:52 437.375
MOZHAYETS 4 11 Dec 16:33:36 16:38:09 71° 284° (WNW) 16:42:41
AUBIESAT-1 11 Dec 16:36:44 16:40:38 29° 298° (WNW) 16:44:22 437.475
